Starlink 4125

operational
NORAD ID: 53244 Int'l Des: 2022-086 Owner: SPXS Country: US Constellation: starlink
LEOCIRCULAR

About Starlink 4125

Description loading...

Live Position

Loading 3D Globe...

Upcoming Passes

Altitude History

Altitude vs Time

uPlot chart will show altitude changes over time

Two-Line Element Set

1 53244U 22086C 25303.73833326 -.00000446 00000-0 -99254-5 0 9994
2 53244 53.2173 67.5692 0001384 82.6682 277.4467 15.08841177181621
Epoch: Oct 30, 2025 • Age: 7 hours

Current Status

Altitude 554.6 km
Velocity 7.58 km/s
Sub-Earth Point -42.06°S, 128.11°W
Launch Date Jul 24, 2022
Age 3.2 years
Type internet

Technical Details

Classification Payload
Mass 297.00 kg
Dry Mass 275.00 kg
Total Mass 297.00 kg
Length 0.20 m
Diameter 2.80 m
Span 9.00 m
Shape Box + pan
Manufacturer SPXS
Bus Type Starlink
Phase Status In Orbit
Owner/State SPXS/US

Large Constellations

Loading constellations...